Regional Weather Roundup
Issued by NWS

Home | Current Version | Previous Version | Graphics & Text | Print | Product List | Glossary On
Versions: 1 2 3 4 5 6 7 8 9 10 11 12 13 14 15 16 17 18 19 20 21 22 23 24 25 26 27 28 29 30 31 32 33 34 35 36 37 38 39 40 41 42 43 44 45 46 47 48 49 50
000
ASUS45 KABQ 272210
RWRNM
NEW MEXICO REGIONAL WEATHER ROUNDUP
NATIONAL WEATHER SERVICE ALBUQUERQUE NM
400 PM MDT FRI MAY 27 2016

NOTE: "FAIR" MEANS FEW OR NO CLOUDS BELOW 12,000 FEET AGL WITH NO
       SIGNIFICANT WEATHER OR OBSTRUCTIONS TO VISION.

      THIS PRODUCT IS RELEASED AS TWO VERSIONS.  ONE VERSION NEAR
      THE TOP OF THE HOUR CONTAINING PRELIMINARY DATA FROM ALBUQUERQUE
      AND OTHER STATIONS.  A FINAL VERSION WITH ADDITIONAL DATA IS
      ISSUED ABOUT 10 MINUTES AFTER THE HOUR.

NMZ501-503-504-510>518-272300-
NORTHWEST PLATEAU/NORTHCENTRAL MOUNTAINS

CITY           SKY/WX    TMP DP  RH WIND       PRES   REMARKS
FARMINGTON     FAIR      72  17  12 W24G32    29.86F
LOS ALAMOS     FAIR      67  18  15 W15G25    29.92F
SANTA FE       FAIR      73  22  14 W23G30    29.86F
TAOS           CLOUDY    57  32  38 NE12      29.92F THUNDER
ANGEL FIRE     PTSUNNY   53  31  43 CALM      29.97F

$$
NMZ402-403-502-505>509-272300-
WESTCENTRAL MOUNTAINS/SOUTHWEST MOUNTAINS

CITY           SKY/WX    TMP DP  RH WIND       PRES   REMARKS
GALLUP         FAIR      69  23  17 NW16G26   29.95F
GRANTS         PTSUNNY   69  21  16 NW9G21    29.95F
SILVER CITY      N/A     75  16  10 W20G25    29.95F

$$
NMZ407-409-411-412-272300-
SOUTHERN DESERTS

CITY           SKY/WX    TMP DP  RH WIND       PRES   REMARKS
LORDSBURG      FAIR      81  19  10 W10G23    29.90F
DEMING         FAIR      80  18  10 W21G30    29.88F
LAS CRUCES     FAIR      82  20  10 W16G23    29.88F
HOLLOMAN AFB   FAIR      80  22  11 SW10G21   29.84F
ALAMOGORDO     FAIR      81  23  12 SW7G21    29.86F
T OR C         FAIR      79  22  12 S14G22    29.84F

$$
NMZ519>523-272300-
CENTRAL VALLEYS/CENTRAL HIGHLANDS

CITY           SKY/WX    TMP DP  RH WIND       PRES   REMARKS
ALBUQUERQUE    PTSUNNY   75  22  13 W13G28    29.86F
DOUBLE EAGLE   PTSUNNY   73  25  16 W10G26    29.90F
MORIARTY ARPT  FAIR      73  19  12 W18G26    29.90F
CLINES CORNERS FAIR      69  22  16 W22G32    29.91F
BELEN          FAIR      77  21  12 W13G24    29.87S
SOCORRO        FAIR      78  22  12 NW14G21   29.84F

$$
NMZ524>526-539-540-272300-
SOUTHCENTRAL MOUNTAINS

CITY           SKY/WX    TMP DP  RH WIND       PRES   REMARKS
RUIDOSO          N/A     68  19  15 W13G22    29.98S

$$
NMZ527>531-272300-
NORTHEAST HIGHLANDS/NORTHEAST PLAINS

CITY           SKY/WX    TMP DP  RH WIND       PRES   REMARKS
LAS VEGAS      FAIR      66  22  18 CALM      29.87F
RATON          PTSUNNY   68  30  24 N7        29.85S
CLAYTON        FAIR      71  39  31 NW20G29   29.79F

$$
NMZ532>537-272300-
EASTCENTRAL PLAINS

CITY           SKY/WX    TMP DP  RH WIND       PRES   REMARKS
TUCUMCARI      FAIR      77  30  17 VRB6      29.77F
CANNON AFB     FAIR      77  28  16 W16       29.79F
CLOVIS AIRPORT FAIR      79  32  18 NW8G23    29.80R

$$
NMZ028-029-538-272300-
SOUTHEAST PLAINS

CITY           SKY/WX    TMP DP  RH WIND       PRES   REMARKS
ROSWELL        FAIR      85  21   9 VRB6G17   29.77F
ARTESIA        FAIR      86  25  10 N8G21     29.76F
CARLSBAD       FAIR      87  19   8 W15G23    29.75F
HOBBS          SUNNY     82  19   9 SW9G18    29.80F


$$




USA.gov is the U.S. government's official web portal to all federal, state and local government web resources and services.